Weather History for Manhattan, KS

Change the Weather History Date:

Friday, February 8, 2013

  Actual Average Record
Temperature  
Mean Temperature 38 °F 31 °F  
Max Temperature 47 °F 43 °F 66 °F (1999)
Min Temperature 29 °F 19 °F -14 °F (2004)
Degree Days  
Heating Degree Days 27 34  
Month to date heating degree days 223 275  
Since 1 July heating degree days 3153 3541  
Cooling Degree Days 0 0  
Month to date cooling degree days 0 0  
Year to date cooling degree days 0 0  
Moisture  
Dew Point 28 °F    
Average Humidity 73    
Maximum Humidity 92    
Minimum Humidity 53    
Precipitation  
Precipitation 0.00 in 0.03 in 0.33 in (2001)
Month to date precipitation 0.62 0.27  
Year to date precipitation 1.31 0.92  
Sea Level Pressure  
Sea Level Pressure 30.28 in    
Wind  
Wind Speed 5 mph (ESE)    
Max Wind Speed 12 mph    
Max Gust Speed 14 mph    
Visibility 6 miles    
Events      
T = Trace of Precipitation, MM = Missing Value Source: NWS Daily Summary

Daily Weather History Graph

Daily Weather History Graph

Search for Another Location

Airport:

Trip Planner

Search our weather history database for the weather conditions in past years. The results will help you decide how hot, cold, wet, or windy it might be!

Date:

Astronomy

Feb. 08, 2013 Rise Set
Actual Time 7:26 AM CST 5:56 PM CST
Civil Twilight 6:58 AM CST 6:23 PM CST
Nautical Twilight 6:26 AM CST 6:55 PM CST
Astronomical Twilight 5:55 AM CST 7:26 PM CST
Moon 5:55 AM CST (2/8) 4:31 PM CST (2/8)
Length of Visible Light 11h 25m
Length of Day
10h 30m
Waning Crescent, 3% of the Moon is Illuminated
Feb 8
Waning Crescent
Feb 10
New
Feb 17
First Quarter
Feb 25
Full
Mar 4
Last Quarter

Hourly Weather History & Observations

Time (CST) Temp. Windchill Dew Point Humidity Pressure Visibility Wind Dir Wind Speed Gust Speed Precip Events Conditions
12:52 AM 32.0 °F 24.8 °F 26.6 °F 80% 30.25 in 8.0 mi NNE 8.1 mph - N/A   Overcast
1:52 AM 32.0 °F 24.8 °F 27.0 °F 82% 30.28 in 8.0 mi NNE 8.1 mph - N/A   Overcast
2:25 AM 30.2 °F 24.3 °F 26.6 °F 86% 30.26 in 8.0 mi NE 5.8 mph - N/A   Overcast
2:52 AM 30.9 °F 23.5 °F 27.0 °F 85% 30.29 in 8.0 mi ENE 8.1 mph - N/A   Overcast
3:52 AM 30.9 °F 26.2 °F 27.0 °F 85% 30.30 in 7.0 mi North 4.6 mph - N/A   Overcast
4:52 AM 30.0 °F 25.2 °F 26.1 °F 85% 30.31 in 5.0 mi North 4.6 mph - N/A   Overcast
5:52 AM 30.0 °F 25.2 °F 26.1 °F 85% 30.32 in 4.0 mi NE 4.6 mph - N/A   Overcast
6:52 AM 28.9 °F 22.8 °F 26.1 °F 89% 30.32 in 4.0 mi NNE 5.8 mph - N/A   Overcast
7:52 AM 28.9 °F 21.9 °F 26.1 °F 89% 30.35 in 4.0 mi East 6.9 mph - N/A   Overcast
8:52 AM 30.0 °F 25.2 °F 26.1 °F 85% 30.36 in 3.0 mi ENE 4.6 mph - N/A   Overcast
9:29 AM 30.2 °F 24.3 °F 26.6 °F 86% 30.33 in 2.5 mi Variable 5.8 mph - N/A   Overcast
9:52 AM 30.9 °F 23.5 °F 27.0 °F 85% 30.36 in 2.5 mi ESE 8.1 mph - N/A   Overcast
10:52 AM 30.9 °F - 27.0 °F 85% 30.38 in 2.5 mi Calm Calm - N/A   Overcast
11:37 AM 32.0 °F 27.5 °F 26.6 °F 80% 30.34 in 3.0 mi SSE 4.6 mph - N/A   Haze
11:52 AM 33.1 °F 30.0 °F 28.0 °F 82% 30.38 in 3.0 mi SE 3.5 mph - N/A   Haze
12:21 PM 33.8 °F 27.7 °F 28.4 °F 81% 30.35 in 3.0 mi SSE 6.9 mph - N/A   Haze
12:52 PM 35.1 °F 32.2 °F 28.9 °F 78% 30.35 in 3.0 mi SE 3.5 mph - N/A   Haze
1:31 PM 37.4 °F 32.1 °F 28.4 °F 70% 30.28 in 4.0 mi SSE 6.9 mph - N/A   Haze
1:52 PM 39.0 °F 34.8 °F 28.9 °F 67% 30.30 in 5.0 mi SE 5.8 mph - N/A   Haze
2:52 PM 44.1 °F 39.0 °F 28.9 °F 55% 30.25 in 10.0 mi ESE 9.2 mph - N/A   Clear
3:52 PM 46.0 °F 41.4 °F 30.0 °F 54% 30.24 in 10.0 mi SSE 9.2 mph - N/A   Clear
4:52 PM 45.0 °F 40.6 °F 30.0 °F 56% 30.22 in 10.0 mi South 8.1 mph - N/A   Clear
5:52 PM 37.0 °F 33.3 °F 28.9 °F 73% 30.22 in 9.0 mi SSW 4.6 mph - N/A   Clear
6:52 PM 36.0 °F - 28.9 °F 76% 30.22 in 10.0 mi Calm Calm - N/A   Clear
7:52 PM 36.0 °F 33.3 °F 28.9 °F 76% 30.21 in 10.0 mi SE 3.5 mph - N/A   Clear
8:52 PM 35.1 °F 32.2 °F 28.9 °F 78% 30.19 in 10.0 mi SE 3.5 mph - N/A   Clear
9:52 PM 35.1 °F 31.0 °F 30.0 °F 82% 30.18 in 8.0 mi SE 4.6 mph - N/A   Clear
10:52 PM 35.1 °F 32.2 °F 30.0 °F 82% 30.19 in 7.0 mi SE 3.5 mph - N/A   Clear
11:52 PM 33.1 °F 30.0 °F 28.9 °F 85% 30.19 in 9.0 mi ESE 3.5 mph - N/A   Clear